User: anonymous   Login
Location: Launois
(49.6535°N, 4.5395°E)
Time: 14:11:36
(UTC+00:00)
Language:

Cosmos 1862 Rocket - Orbit

View from above orbital plane
View from above orbital plane
View from above satellite
View from above satellite

Ground track
Ground track

The orbit data is extracted from the following two-line orbital elements,

1 18153U 87055B   24195.73711667  .00000714  00000-0  81701-4 0  9995
2 18153  82.4986 197.8779 0020427 205.1347 154.8876 14.84483241980300
Epoch (UTC): 13 July 2024 17:41:26
Eccentricity: 0.0020427
inclination: 82.4986°
perigee height: 601 km
apogee height: 629 km
right ascension of ascending node: 197.8779°
argument of perigee: 205.1347°
revolutions per day: 14.84483241
mean anomaly at epoch: 154.8876°
orbit number at epoch: 98030

The dashed part of the orbit path shows where the satellite is in the earth's shadow,  

DLR